Location: *
(50.4500°N, 3.9500°E)
Time: 22:55:04
(UTC+00:00)

Daily predictions for brighter satellites

Satellite Brightness Start Highest point End
(mag) Time Altitude Azimuth Time Altitude Azimuth Time Altitude Azimuth
Cosmos 1821 Rocket 4.0 17:01:49 10° N 17:07:59 87° E 17:14:10 10° S
Cosmos 1605 Rocket 4.3 17:02:45 10° N 17:08:37 42° ENE 17:14:21 10° SE
Cosmos 1844 3.8 17:03:59 10° SSW 17:09:43 82° ESE 17:15:33 10° NNE
Cosmos 1356 4.1 17:07:07 10° SSE 17:10:13 33° E 17:13:21 10° NNE
Unknown 3.8 17:06:10 10° W 17:10:17 68° NNW 17:14:25 10° ENE
Cosmos 1953 2.4 17:07:35 10° S 17:11:40 89° WNW 17:15:46 10° N
Cosmos 1934 Rocket 4.1 17:05:23 10° N 17:11:42 63° ENE 17:18:01 10° SSE
Unknown 3.8 17:08:05 10° W 17:12:14 68° NNW 17:16:22 10° ENE
Unknown 3.8 17:09:56 10° W 17:14:05 67° N 17:18:14 10° ENE
Cosmos 1606 Rocket 3.5 17:10:18 10° S 17:14:40 82° E 17:19:01 10° NNE
Unknown 3.8 17:11:24 10° W 17:15:34 67° N 17:19:44 10° ENE
CSL-04 Rocket 4.2 17:11:19 10° SE 17:16:24 40° ENE 17:21:27 10° N
Unknown 3.8 17:13:07 10° W 17:17:15 66° N 17:21:23 10° ENE
Unknown 3.9 17:14:53 10° W 17:19:01 65° N 17:23:09 10° ENE
COBE Rocket 4.3 17:14:21 10° NNE 17:19:20 45° E 17:24:11 10° S
Cosmos 2263 Rocket 4.1 17:14:51 10° W 17:19:28 25° NW 17:24:04 10° NNE
Meteor 2-10 4.2 17:16:31 10° SSE 17:21:20 48° E 17:26:11 10° NNE
Unknown 3.9 17:18:13 10° W 17:22:20 64° N 17:26:29 10° ENE
Unknown 3.8 17:18:18 10° W 17:22:26 65° N 17:26:33 10° ENE
Unknown 3.9 17:19:45 10° W 17:23:54 64° N 17:27:58 10° ENE
Nadezhda 3 Rocket 4.2 17:17:39 10° S 17:23:59 86° W 17:30:24 10° N
Cosmos 1535 Rocket 4.5 17:18:54 10° N 17:25:09 78° E 17:31:16 10° SSE
Cosmos 1470 4.4 17:21:35 10° SW 17:25:21 39° WNW 17:29:07 10° N
Unknown 3.2 17:22:49 10° WNW 17:26:20 89° NNE 17:29:52 10° ESE
Unknown 3.9 17:23:00 10° W 17:27:08 64° N 17:31:05 11° ENE
Unknown 3.9 17:26:26 10° W 17:30:34 63° N 17:34:22 12° ENE
YAOGAN 6 2.8 17:28:37 10° SE 17:32:07 46° ENE 17:35:36 10° N
Unknown 3.9 17:28:07 10° W 17:32:15 62° N 17:35:58 12° ENE
Cosmos 292 Rocket 3.7 17:27:55 10° SSW 17:32:37 67° ESE 17:37:21 10° NNE
Cosmos 1833 Rocket 2.7 17:27:15 10° NNW 17:32:53 69° ENE 17:38:29 10° SE
Cosmos 2058 4.3 17:29:46 10° NNE 17:32:55 20° ENE 17:36:02 10° ESE
Unknown 3.9 17:29:48 10° W 17:33:55 62° N 17:37:34 13° ENE
Unknown 3.7 17:30:11 10° WNW 17:34:00 59° N 17:37:14 14° E
Unknown 3.9 17:31:29 10° W 17:35:36 62° N 17:39:11 13° ENE
Unknown 3.9 17:34:50 10° W 17:38:56 61° N 17:42:23 14° ENE
NOSS 3-2 (A) 4.2 17:35:46 10° S 17:40:39 29° ESE 17:46:02 10° ENE
Unknown 3.9 17:36:33 10° W 17:40:40 61° N 17:44:02 15° ENE
Cosmos 1328 3.9 17:37:52 10° NNW 17:41:52 78° W 17:45:48 10° S
Unknown 3.9 17:38:08 10° W 17:42:15 61° N 17:45:33 15° ENE
SKYMED 2 3.7 17:39:12 10° NNE 17:43:29 52° E 17:47:43 10° S
Unknown 3.9 17:39:45 10° W 17:43:52 61° N 17:47:06 16° ENE
Ariane Rocket 3.7 17:39:22 10° SE 17:43:53 33° ENE 17:48:26 10° N
Cosmos 2228 3.7 17:40:25 10° SSW 17:44:43 59° WNW 17:49:01 10° N
Unknown 3.9 17:41:31 10° W 17:45:38 60° N 17:48:48 16° ENE
YAOGAN 1 2.6 17:42:07 10° SSE 17:46:21 58° ENE 17:50:37 10° N
NOSS 3-3 (A) 4.5 17:39:38 10° NW 17:46:57 73° NE 17:55:07 10° SE
NOSS 3-3 (C) 4.5 17:39:44 10° NW 17:47:03 73° NE 17:55:12 10° SE
Unknown 3.9 17:42:56 10° W 17:47:03 61° N 17:50:10 17° ENE
Unknown 3.9 17:46:17 10° W 17:50:24 60° N 17:53:22 18° ENE
Cosmos 921 Rocket 3.8 17:47:37 10° SW 17:52:02 55° WNW 17:56:25 10° NNE
Unknown 3.9 17:47:58 10° W 17:52:04 60° N 17:54:58 19° ENE
Cosmos 2100 Rocket 4.4 17:47:51 10° N 17:53:37 39° ENE 17:59:19 10° SE
Unknown 3.9 17:49:51 10° W 17:53:57 60° N 17:56:46 19° ENE
Cosmos 1300 3.7 17:50:52 10° SE 17:54:01 25° E 17:57:12 10° NNE
Cosmos 1939 Rocket 3.4 17:51:24 10° SE 17:55:07 37° ENE 17:58:54 10° N
Unknown 3.9 17:51:18 10° W 17:55:25 60° N 17:58:10 20° ENE
Unknown 3.6 17:51:40 10° WNW 17:55:32 62° N 17:57:58 21° E
Abrixas rocket 2.8 17:53:20 10° SW 17:56:14 38° SSE 17:57:37 24° ESE
Cosmos 1937 Rocket 4.4 17:52:18 10° N 17:56:43 27° NE 17:59:13 19° E
Cosmos 489 Rocket 4.5 17:50:36 10° SSW 17:56:48 88° ESE 18:03:04 10° NNE
Unknown 3.9 17:52:55 10° W 17:57:02 60° N 17:59:43 20° ENE
CZ-2D R/B 3.6 17:54:37 10° SE 17:58:16 43° ENE 18:01:59 10° N
Unknown 3.9 17:56:19 10° W 18:00:25 59° N 18:02:58 22° ENE
Unknown 3.9 17:57:57 10° W 18:02:03 59° N 18:04:32 23° ENE
ADEOS Rocket 4.5 17:58:10 10° NE 18:03:35 21° E 18:07:28 14° ESE
Unknown 3.9 17:59:38 10° W 18:03:45 59° N 18:06:09 23° ENE
Cosmos 2082 Rocket 2.2 17:58:02 10° NNW 18:03:48 81° ENE 18:09:29 10° SSE
CSL-04 Debris 4.2 17:59:12 10° SSE 18:04:40 88° ENE 18:10:13 10° NNW
Unknown 3.8 18:01:11 10° WNW 18:05:13 59° N 18:07:24 25° ENE
BREEZE-M DEB (TANK) 4.1 18:01:03 10° WNW 18:05:22 66° SSW 18:17:43 10° ESE
Unknown 3.9 18:01:17 10° W 18:05:23 59° N 18:07:43 24° ENE
NOSS 3-2 (C) 4.2 18:01:31 10° S 18:06:25 29° ESE 18:09:34 19° ENE
Cosmos 1153 Rocket 4.4 18:02:37 10° N 18:08:47 73° ENE 18:14:55 10° SSE
Unknown 3.9 18:04:41 10° W 18:08:48 59° N 18:10:59 26° ENE
ASTEX 1 3.7 18:04:10 10° N 18:09:08 72° W 18:14:05 10° SSW
USA 116 3.3 18:06:29 10° NNE 18:09:40 56° ESE 18:13:04 10° S
Unknown 3.9 18:05:45 10° W 18:09:51 59° N 18:11:59 26° ENE
Unknown 3.9 18:06:30 10° W 18:10:36 59° N 18:12:41 27° ENE
Unknown 3.8 18:07:47 10° WNW 18:11:51 59° N 18:13:50 28° ENE
Unknown 3.9 18:08:12 10° W 18:12:19 59° N 18:14:20 28° ENE
Cosmos 1844 Rocket 4.3 18:09:47 10° WSW 18:14:53 34° NW 18:20:00 10° NNE
Unknown 3.9 18:11:21 10° W 18:15:27 59° N 18:17:21 29° ENE
Unknown 4.3 18:14:01 10° WNW 18:17:14 39° SSW 18:19:11 20° SSE
Unknown 3.9 18:14:40 10° WNW 18:18:46 59° N 18:20:32 31° ENE
Cosmos 1461 4.2 18:15:25 10° NW 18:19:15 40° WSW 18:23:12 10° SSE
Unknown 3.9 18:16:20 10° WNW 18:20:27 60° N 18:22:08 32° ENE
Cosmos 2058 Rocket 4.4 18:16:31 10° SW 18:20:38 42° WNW 18:24:49 10° N
Unknown 3.9 18:17:58 10° WNW 18:22:05 60° N 18:23:42 34° ENE
Lacrosse 5 2.5 18:18:33 10° WNW 18:23:30 54° SW 18:27:31 15° SSE
Unknown 3.8 18:19:39 10° WNW 18:23:46 60° N 18:25:18 35° ENE
SL-27 R/B 4.3 18:22:19 10° N 18:23:38 17° NNE 18:23:38 17° NNE
Meteor 2-1 Rocket 4.5 18:19:51 10° SSE 18:25:00 42° E 18:30:14 10° NNE
SJ 16-02 1.9 18:21:06 10° N 18:25:10 35° ENE 18:25:45 34° ENE
CZ-4 R/B 2.6 18:22:04 10° S 18:26:06 45° W 18:30:12 10° NNW
FALCON 9 DEB 4.3 18:23:10 10° WNW 18:26:27 39° SSW 18:28:00 24° SSE
In-Cosmos 22 Rocket 4.1 18:22:18 10° N 18:27:39 57° ENE 18:32:45 12° SSE
SPOT 3 Rocket 4.3 18:26:38 30° E 18:27:42 33° ENE 18:32:19 10° N
ATLAS CENTAUR R/B 3.2 18:25:57 10° NNW 18:29:18 19° NNE 18:30:12 18° NE
Unknown 3.8 18:26:19 10° WNW 18:30:26 61° N 18:31:42 40° ENE
COSMO-SKYMED 1 3.3 18:27:18 10° N 18:31:34 55° WNW 18:35:49 10° SSW
Unknown 3.8 18:28:01 10° WNW 18:32:09 61° N 18:33:20 41° ENE
Cosmos 2084 Rocket 3.8 18:29:05 10° NW 18:33:29 64° SW 18:36:06 23° SSE
Unknown 3.8 18:29:39 10° WNW 18:33:46 61° N 18:34:53 43° ENE
ATLAS 3B R/B 3.2 18:28:09 10° S 18:33:58 32° ESE 18:35:04 30° E
ATLAS 5 CENTAUR R/B 3.6 18:31:21 10° WNW 18:35:09 24° NNW 18:39:03 12° NE
Unknown 3.8 18:31:19 10° WNW 18:35:26 61° N 18:36:29 44° ENE
Unknown 3.8 18:32:58 10° WNW 18:37:06 62° N 18:38:04 46° ENE
Cosmos 1726 4.5 18:34:11 10° SW 18:37:13 25° WNW 18:40:17 10° NNW
Unknown 3.3 18:35:19 10° WNW 18:39:04 77° SSW 18:39:39 59° SE
Unknown 3.8 18:36:18 10° WNW 18:40:25 62° N 18:41:16 49° ENE
CENTAUR R/B 3.0 18:36:15 10° S 18:41:40 36° ESE 18:42:36 35° E
Unknown 4.4 18:38:28 10° WNW 18:41:44 36° SW 18:42:37 30° S
Starlink (trailer) 3.8 18:37:58 10° WNW 18:42:05 63° N 18:42:51 51° ENE
Cosmos 1459 Rocket 3.9 18:37:14 10° N 18:43:29 77° E 18:49:47 10° SSE
H-2A R/B 2.6 18:42:58 38° E 18:43:32 39° ENE 18:48:33 10° N
Unknown 3.7 18:39:39 10° WNW 18:43:47 63° N 18:44:29 53° NE
Cosmos 2061 Rocket 4.0 18:38:54 10° N 18:45:06 61° ENE 18:49:20 21° SSE
Unknown 3.7 18:41:19 10° WNW 18:45:27 63° N 18:46:04 55° NE
SJ-6B 4.2 18:47:30 24° NNE 18:47:30 24° NNE 18:49:18 10° N
Cosmos 2278 Rocket 2.7 18:40:55 10° SW 18:46:33 61° NW 18:52:12 10° NNE
Cosmos 1898 Rocket 3.4 18:42:09 10° NNW 18:47:27 80° ENE 18:50:02 31° SSE
SJ-11-01 4.2 18:46:45 46° ESE 18:47:51 60° ENE 18:52:28 10° N
Cosmos 1766 Rocket 3.8 18:44:46 10° N 18:48:35 49° NE 18:48:35 49° NE
Unknown 3.6 18:46:00 10° WNW 18:50:06 65° N 18:50:31 60° NE
Cosmos 2297 3.7 18:44:48 10° S 18:50:22 56° ESE 18:53:21 27° NE
Unknown 3.6 18:47:58 10° WNW 18:52:06 65° N 18:52:27 62° NE
Unknown 3.6 18:49:51 10° WNW 18:54:00 66° N 18:54:17 63° NE
Unknown 3.6 18:51:16 10° WNW 18:55:27 66° N 18:55:40 65° NNE
Unknown 3.6 18:52:59 10° WNW 18:57:08 67° N 18:57:15 66° NNE
Unknown 3.6 18:54:45 10° WNW 18:58:54 68° NNE 18:58:57 68° NNE
Okean 3 Rocket 3.5 18:54:44 10° N 18:59:18 84° E 19:00:14 56° SSE
Cosmos 1076 Rocket 4.5 18:55:20 10° NNW 18:59:33 47° W 19:03:42 10° SSW
Unknown 3.7 18:58:05 10° WNW 19:02:08 69° N 19:02:08 69° N
Unknown 3.7 18:58:09 10° WNW 19:02:12 68° N 19:02:12 68° N
Resurs 01 Rocket 3.6 19:06:07 18° NNE 19:06:07 18° NNE 19:07:32 10° N
Unknown 3.7 18:59:37 10° WNW 19:03:37 68° N 19:03:37 68° N
ARGOS 3.3 19:05:13 52° ENE 19:05:14 52° ENE 19:10:30 10° N
Unknown 3.8 19:02:52 10° WNW 19:06:44 66° NNW 19:06:44 66° NNW
USA 238 DEB 3.7 19:01:03 10° SW 19:07:47 82° NW 19:12:35 22° NE
USA 238 3.7 19:01:09 10° SW 19:07:54 83° NW 19:12:38 22° NE
Cosmos 1892 3.8 19:04:32 10° N 19:06:54 37° N 19:06:54 37° N
Cosmos 2058 3.8 19:06:02 10° NNW 19:10:07 49° W 19:12:59 18° SSW
Unknown 3.9 19:06:17 10° WNW 19:10:01 65° NNW 19:10:01 65° NNW
Cosmos 44 3.4 19:05:38 10° SSW 19:09:46 58° S 19:09:46 58° S
Cosmos 2173 Rocket 4.2 19:05:34 10° NNW 19:11:47 70° W 19:17:54 10° S
Unknown 3.9 19:07:58 10° WNW 19:11:37 63° NW 19:11:37 63° NW
Unknown 4.1 19:08:39 10° WNW 19:11:46 53° W 19:11:46 53° W
Unknown 4.0 19:09:37 10° WNW 19:13:13 62° NW 19:13:13 62° NW
Unknown 4.0 19:11:18 10° WNW 19:14:50 60° NW 19:14:50 60° NW
Cosmos 1864 Rocket 4.3 19:11:05 10° N 19:17:16 78° E 19:18:58 50° SSE
Unknown 4.2 19:14:39 10° WNW 19:18:02 56° NW 19:18:02 56° NW
Cosmos 1802 Rocket 4.2 19:14:02 10° NNW 19:20:28 73° W 19:26:33 11° S
Unknown 4.2 19:16:22 10° WNW 19:19:41 54° NW 19:19:41 54° NW
Cosmos 2151 3.3 19:16:59 10° NNW 19:20:43 62° NW 19:20:43 62° NW
Unknown 4.3 19:17:56 10° WNW 19:21:12 53° WNW 19:21:12 53° WNW
Ariane Rocket 4.1 19:17:55 10° S 19:22:44 42° W 19:27:36 10° NNW
Unknown 4.4 19:19:33 10° WNW 19:22:45 51° WNW 19:22:45 51° WNW
Meteor 2-3 Rocket 4.5 19:19:23 10° N 19:23:33 39° NNE 19:23:33 39° NNE
Unknown 4.4 19:21:21 10° WNW 19:24:29 49° WNW 19:24:29 49° WNW
Cosmos 2123 Rocket 3.8 19:24:50 51° SSE 19:26:28 73° E 19:32:43 10° NNE
Cosmos 468 Rocket 4.1 19:23:44 10° SSW 19:28:19 68° SSW 19:28:19 68° SSW
NOSS 3-2 (A) 3.6 19:24:58 10° SW 19:30:53 71° NW 19:33:48 35° NNE
Cosmos 2150 Rocket 4.5 19:26:23 10° NNW 19:30:47 53° NNE 19:30:47 53° NNE
Cosmos 2233 Rocket 4.0 19:27:02 10° N 19:32:56 66° NE 19:32:56 66° NE
Cosmos 1725 Rocket 4.0 19:28:05 10° N 19:34:23 83° W 19:36:08 51° S
CZ-2C R/B 3.6 19:38:10 56° NNE 19:38:10 56° NNE 19:42:51 10° N
Cosmos 1937 Rocket 3.9 19:33:59 10° NNW 19:39:00 55° WSW 19:39:25 54° SW
Cosmos 2227 Rocket 4.4 19:41:12 10° N 19:43:33 14° NNE 19:43:33 14° NNE
Cosmos 2297 Rocket 4.3 19:45:53 10° N 19:48:12 14° NNE 19:48:12 14° NNE
ADEOS Rocket 3.3 19:42:28 10° NNE 19:50:14 84° ESE 19:57:23 10° SSW
NOSS 3-2 (C) 3.6 19:50:44 10° SW 19:56:41 72° NW 19:57:04 70° NNW
SJ 16-02 3.3 19:59:50 10° NW 20:02:46 27° WNW 20:02:46 27° WNW
Lacrosse 5 4.5 20:03:35 10° W 20:05:30 12° WSW 20:06:45 11° SW
ATLAS CENTAUR R/B 3.8 20:04:42 10° NW 20:06:23 21° NNW 20:06:23 21° NNW
Cosmos 1238 Rocket 4.3 20:03:21 10° N 20:08:47 61° NNW 20:08:47 61° NNW
ATLAS 5 CENTAUR R/B 4.1 20:17:43 10° NW 20:20:34 20° N 20:20:34 20° N
H-2A R/B 3.4 20:23:36 37° W 20:23:36 37° W 20:28:02 10° NNW
ATLAS 3B R/B 3.2 20:17:32 10° SW 20:22:24 49° WSW 20:22:24 49° WSW
CENTAUR R/B 3.4 20:25:45 10° WSW 20:29:51 43° W 20:29:51 43° W
